EOS-01

operational
NORAD ID: 46905 Int'l Des: 2020-081 Owner: ISRO Country: IN
LEOCIRCULAR

About EOS-01

Description loading...

Live Position

Loading 3D Globe...

Upcoming Passes

Altitude History

Altitude vs Time

uPlot chart will show altitude changes over time

Two-Line Element Set

1 46905U 20081A 26061.20958435 .00005867 00000-0 44971-3 0 9990
2 46905 36.8984 139.3474 0011981 350.7508 9.3011 15.01526419291384
Epoch: Mar 2, 2026 • Age: 36 hours

Current Status

Altitude 564.3 km
Velocity 7.58 km/s
Sub-Earth Point 36.61°N, 106.18°W
Launch Date Nov 7, 2020
Age 5.3 years
Type other

Technical Details

Classification Payload
Mass 628.00 kg
Dry Mass 628.00 kg
Total Mass 628.00 kg
Length 2.00 m
Diameter 1.00 m
Span 5.00 m
Shape Hex Cyl + 2 Pan + Dish
Manufacturer ISRO
Bus Type TechSar
Phase Status In Orbit
Owner/State ISRO/IN

Large Constellations

Loading constellations...